| time (UTC) | temp C | wind direction | speed KPH | gust KPH | rain 1hr cm | rain 24hr cm | rain mn cm | humidity % | barometer mb |
| 20260504045437 | 10 | 202 | 0.0 | 0.0 | 0.00 | 0.00 | 0.00 | 84 | 1029.2 |
| 20260504044437 | 10 | 202 | 0.0 | 1.6 | 0.00 | 0.00 | 0.00 | 84 | 1029.3 |
| 20260504043435 | 10 | 202 | 0.0 | 0.0 | 0.00 | 0.00 | 0.00 | 84 | 1029.5 |
| 20260504042437 | 11 | 202 | 0.0 | 0.0 | 0.00 | 0.00 | 0.00 | 84 | 1029.5 |
| 20260504041437 | 11 | 202 | 0.0 | 0.0 | 0.00 | 0.00 | 0.00 | 84 | 1029.4 |
| 20260504040436 | 11 | 202 | 0.0 | 3.2 | 0.00 | 0.00 | 0.00 | 84 | 1029.5 |
| 20260504035436 | 11 | 202 | 0.0 | 0.0 | 0.00 | 0.00 | 0.00 | 84 | 1029.4 |
| 20260504034438 | 11 | 202 | 0.0 | 0.0 | 0.00 | 0.00 | 0.00 | 84 | 1029.4 |
| 20260504032436 | 11 | 204 | 1.6 | 3.2 | 0.00 | 0.00 | 0.00 | 84 | 1029.6 |
| 20260504030437 | 11 | 180 | 1.6 | 3.2 | 0.00 | 0.00 | 0.00 | 84 | 1029.6 |
| 20260504025437 | 11 | 218 | 1.6 | 3.2 | 0.00 | 0.00 | 0.00 | 84 | 1029.6 |
| 20260504023436 | 11 | 202 | 0.0 | 1.6 | 0.00 | 0.00 | 0.00 | 84 | 1029.6 |
| 20260504022437 | 11 | 236 | 1.6 | 3.2 | 0.00 | 0.00 | 0.00 | 84 | 1029.7 |
| 20260504021436 | 11 | 174 | 1.6 | 3.2 | 0.00 | 0.00 | 0.00 | 85 | 1029.7 |
| 20260504020436 | 11 | 204 | 1.6 | 3.2 | 0.00 | 0.00 | 0.00 | 85 | 1029.7 |
| 20260504014436 | 11 | 270 | 0.0 | 0.0 | 0.00 | 0.00 | 0.00 | 86 | 1029.8 |
| 20260504013438 | 11 | 231 | 0.0 | 3.2 | 0.00 | 0.00 | 0.00 | 86 | 1030.0 |
| 20260504012437 | 11 | 225 | 0.0 | 1.6 | 0.00 | 0.00 | 0.00 | 86 | 1030.1 |
| 20260504011436 | 11 | 212 | 1.6 | 4.8 | 0.00 | 0.00 | 0.00 | 86 | 1030.3 |
| 20260504010438 | 11 | 236 | 1.6 | 3.2 | 0.00 | 0.00 | 0.00 | 86 | 1030.5 |
| 20260504004436 | 10 | 199 | 3.2 | 6.4 | 0.00 | 0.00 | 0.00 | 86 | 1030.7 |
| 20260504003438 | 10 | 201 | 3.2 | 8.0 | 0.00 | 0.00 | 0.00 | 87 | 1031.0 |
| 20260504002436 | 10 | 227 | 3.2 | 6.4 | 0.00 | 0.00 | 0.00 | 87 | 1031.3 |
| 20260504001435 | 10 | 201 | 1.6 | 3.2 | 0.00 | 0.00 | 0.00 | 87 | 1031.2 |
| 20260504000436 | 10 | 232 | 3.2 | 6.4 | 0.00 | 0.00 | 0.00 | 87 | 1031.4 |
| 20260503235437 | 10 | 223 | 3.2 | 8.0 | 0.00 | 0.00 | 0.00 | 87 | 1031.5 |
| 20260503234436 | 10 | 229 | 1.6 | 3.2 | 0.00 | 0.00 | 0.00 | 87 | 1031.4 |
| 20260503233446 | 10 | 244 | 3.2 | 9.7 | 0.00 | 0.00 | 0.00 | 87 | 1031.5 |
| 20260503231438 | 10 | 234 | 3.2 | 6.4 | 0.00 | 0.00 | 0.00 | 88 | 1031.7 |
| 20260503230436 | 9 | 219 | 1.6 | 4.8 | 0.00 | 0.00 | 0.00 | 87 | 1031.8 |
| 20260503225445 | 9 | 199 | 1.6 | 4.8 | 0.00 | 0.00 | 0.00 | 87 | 1031.5 |
| 20260503224437 | 9 | 219 | 3.2 | 6.4 | 0.00 | 0.00 | 0.00 | 87 | 1031.5 |
| 20260503223437 | 9 | 221 | 1.6 | 3.2 | 0.00 | 0.00 | 0.00 | 87 | 1031.6 |
| 20260503222436 | 9 | 236 | 3.2 | 6.4 | 0.00 | 0.00 | 0.00 | 87 | 1031.6 |
| 20260503214436 | 8 | 225 | 0.0 | 0.0 | 0.00 | 0.00 | 0.00 | 87 | 1031.5 |
| 20260503213437 | 8 | 218 | 0.0 | 4.8 | 0.00 | 0.00 | 0.00 | 87 | 1031.3 |
| 20260503212436 | 8 | 225 | 0.0 | 3.2 | 0.00 | 0.00 | 0.00 | 86 | 1031.6 |
| 20260503211436 | 8 | 225 | 0.0 | 0.0 | 0.00 | 0.00 | 0.00 | 86 | 1031.4 |
| 20260503210436 | 8 | 52 | 0.0 | 3.2 | 0.00 | 0.00 | 0.00 | 86 | 1031.4 |
| 20260503205436 | 8 | 22 | 0.0 | 0.0 | 0.00 | 0.00 | 0.00 | 86 | 1031.5 |
| 20260503204435 | 7 | 22 | 0.0 | 0.0 | 0.00 | 0.00 | 0.00 | 86 | 1031.4 |
| 20260503203439 | 7 | 22 | 0.0 | 0.0 | 0.00 | 0.00 | 0.00 | 86 | 1031.5 |
| 20260503202437 | 7 | 22 | 0.0 | 0.0 | 0.00 | 0.00 | 0.00 | 86 | 1031.3 |
| 20260503195435 | 7 | 22 | 0.0 | 0.0 | 0.00 | 0.00 | 0.00 | 86 | 1031.0 |
| 20260503194435 | 6 | 22 | 0.0 | 0.0 | 0.00 | 0.00 | 0.00 | 86 | 1030.9 |
| 20260503193437 | 6 | 22 | 0.0 | 0.0 | 0.00 | 0.00 | 0.00 | 85 | 1030.7 |
| 20260503192437 | 6 | 22 | 0.0 | 1.6 | 0.00 | 0.00 | 0.00 | 85 | 1030.6 |
| 20260503191436 | 6 | 45 | 0.0 | 1.6 | 0.00 | 0.00 | 0.00 | 85 | 1030.4 |
| 20260503190437 | 6 | 45 | 0.0 | 1.6 | 0.00 | 0.00 | 0.00 | 85 | 1030.6 |
| 20260503185436 | 6 | 45 | 0.0 | 0.0 | 0.00 | 0.00 | 0.00 | 85 | 1030.7 |
| 20260503184436 | 6 | 22 | 0.0 | 1.6 | 0.00 | 0.00 | 0.00 | 85 | 1030.6 |
| 20260503183436 | 5 | 22 | 0.0 | 1.6 | 0.00 | 0.00 | 0.00 | 85 | 1030.5 |
| 20260503182436 | 5 | 45 | 3.2 | 3.2 | 0.00 | 0.00 | 0.00 | 85 | 1030.5 |
| 20260503181438 | 5 | 45 | 0.0 | 3.2 | 0.00 | 0.00 | 0.00 | 84 | 1030.5 |
| 20260503180436 | 5 | 45 | 0.0 | 1.6 | 0.00 | 0.00 | 0.00 | 84 | 1030.4 |
| 20260503174436 | 5 | 36 | 1.6 | 3.2 | 0.00 | 0.00 | 0.00 | 84 | 1030.3 |
| 20260503173436 | 5 | 39 | 3.2 | 4.8 | 0.00 | 0.00 | 0.00 | 84 | 1030.4 |
| 20260503172437 | 5 | 24 | 3.2 | 4.8 | 0.00 | 0.00 | 0.00 | 84 | 1030.2 |
| 20260503171438 | 5 | 28 | 1.6 | 3.2 | 0.00 | 0.00 | 0.00 | 83 | 1030.2 |
| 20260503170437 | 5 | 45 | 1.6 | 3.2 | 0.00 | 0.00 | 0.00 | 84 | 1030.4 |
| 20260503130436 | 6 | 30 | 3.2 | 4.8 | 0.00 | 0.00 | 0.00 | 81 | 1030.6 |
| 20260503110435 | 7 | 41 | 3.2 | 4.8 | 0.00 | 0.00 | 0.00 | 80 | 1031.0 |
| 20260503090435 | 7 | 45 | 1.6 | 3.2 | 0.00 | 0.00 | 0.00 | 78 | 1030.6 |
| 20260503081436 | 7 | 34 | 3.2 | 3.2 | 0.00 | 0.00 | 0.00 | 76 | 1030.6 |
| 20260503080438 | 7 | 30 | 3.2 | 4.8 | 0.00 | 0.00 | 0.00 | 76 | 1030.6 |
| 20260503072435 | 7 | 36 | 3.2 | 3.2 | 0.00 | 0.00 | 0.00 | 74 | 1030.6 |
| 20260503071435 | 7 | 45 | 1.6 | 3.2 | 0.00 | 0.00 | 0.00 | 74 | 1030.6 |
| 20260503070456 | 7 | 30 | 3.2 | 4.8 | 0.00 | 0.00 | 0.00 | 73 | 1030.5 |